DW7447 Weather Reports


time (UTC)temp
F
wind
direction
speed
knots
gust
knots
rain 1hr
in
rain 24hr
in
rain mn
in
humidity
%
barometer
mb
20260510013637 42 30 5.2 11.3 0.00 0.35 0.00 89 1023.2
20260510013136 42 56 6.1 11.3 0.00 0.35 0.00 90 1023.2
20260510012636 43 44 3.5 9.6 0.00 0.35 0.00 90 1023.2
20260510012138 43 30 4.3 9.6 0.00 0.35 0.00 90 1023.3
20260510011636 43 0 4.3 9.6 0.00 0.35 0.00 90 1023.2
20260510011136 43 8 5.2 9.6 0.00 0.35 0.00 90 1023.3
20260510010636 43 20 3.5 11.3 0.00 0.35 0.00 91 1023.2
20260510010136 43 21 4.3 11.3 0.00 0.35 0.00 91 1023.3
20260510005636 43 7 4.3 9.6 0.00 0.35 0.00 91 1023.3
20260510005137 43 34 5.2 9.6 0.00 0.35 0.00 91 1023.4
20260510004636 43 17 5.2 9.6 0.00 0.35 0.00 91 1023.4
20260510004137 43 0 5.2 9.6 0.00 0.35 0.00 91 1023.5
20260510003637 43 8 4.3 11.3 0.00 0.35 0.00 91 1023.4
20260510003136 43 17 6.1 11.3 0.00 0.35 0.00 91 1023.4
20260510002637 43 18 5.2 9.6 0.00 0.35 0.00 92 1023.4
20260510002136 43 25 4.3 9.6 0.00 0.35 0.00 92 1023.4
20260510001136 43 20 5.2 9.6 0.00 0.35 0.00 92 1023.4
20260510000636 43 353 5.2 9.6 0.00 0.35 0.00 92 1023.6
20260509235636 43 41 4.3 7.8 0.00 0.35 0.00 92 1023.6
20260509235136 43 30 3.5 11.3 0.00 0.35 0.00 92 1023.6
20260509234636 43 25 5.2 11.3 0.00 0.35 0.00 93 1023.5
20260509234136 43 30 5.2 10.4 0.00 0.35 0.00 93 1023.6
20260509233636 43 18 5.2 10.4 0.00 0.35 0.00 93 1023.6
20260509233137 43 32 4.3 10.4 0.00 0.35 0.00 93 1023.7
20260509232637 43 3 3.5 10.4 0.00 0.35 0.00 93 1023.6
20260509232136 43 55 4.3 9.6 0.00 0.35 0.00 93 1023.5
20260509231637 43 10 5.2 9.6 0.00 0.35 0.00 93 1023.6
20260509231136 43 28 5.2 9.6 0.00 0.36 0.00 93 1023.6
20260509230636 44 17 4.3 7.8 0.00 0.36 0.00 93 1023.7
20260509230137 44 31 4.3 9.6 0.00 0.36 0.00 93 1023.6
20260509225636 44 27 4.3 10.4 0.00 0.36 0.36 93 1023.6
20260509225136 44 65 5.2 10.4 0.00 0.36 0.36 93 1023.6
20260509224636 44 38 3.5 10.4 0.00 0.36 0.36 92 1023.6
20260509224148 44 31 5.2 12.2 0.00 0.36 0.36 92 1023.5
20260509223635 44 55 5.2 12.2 0.00 0.36 0.36 92 1023.5
20260509223137 44 34 5.2 10.4 0.00 0.36 0.36 92 1023.6
20260509222637 44 38 6.1 10.4 0.00 0.36 0.36 93 1023.5
20260509222136 44 24 5.2 11.3 0.00 0.36 0.36 93 1023.6
20260509221638 44 51 6.1 13.9 0.00 0.36 0.36 93 1023.7
20260509221137 44 51 6.1 14.8 0.00 0.36 0.36 93 1023.6
20260509220136 44 25 7.8 15.6 0.00 0.36 0.36 93 1023.7
20260509215636 44 0 7.0 13.0 0.00 0.37 0.36 93 1023.8
20260509215135 44 21 6.1 12.2 0.00 0.37 0.36 93 1023.7
20260509214636 44 56 5.2 10.4 0.00 0.38 0.36 93 1023.8
20260509214138 44 65 5.2 10.4 0.00 0.39 0.36 93 1023.8
20260509213636 44 45 6.1 10.4 0.00 0.39 0.36 93 1023.8
20260509213136 44 25 5.2 11.3 0.00 0.39 0.36 93 1023.7
20260509212636 44 58 7.0 14.8 0.00 0.39 0.36 93 1023.7
20260509212136 44 55 7.8 14.8 0.00 0.39 0.36 94 1023.8
20260509211635 45 32 7.0 13.0 0.00 0.39 0.36 94 1023.7
20260509211137 44 14 7.0 13.0 0.00 0.39 0.36 94 1023.8
20260509210637 44 54 7.0 13.0 0.00 0.39 0.36 94 1023.8
20260509210135 44 37 6.1 13.0 0.00 0.39 0.36 93 1023.7
20260509205638 44 20 7.0 12.2 0.00 0.39 0.36 93 1023.7
20260509205137 44 11 6.1 10.4 0.00 0.39 0.36 93 1023.6
20260509203634 44 6 6.1 13.0 0.00 0.40 0.36 93 1023.6
20260509203134 44 23 6.1 13.9 0.00 0.40 0.36 93 1023.6
20260509202635 44 39 9.6 13.9 0.00 0.40 0.36 94 1023.6
20260509202135 44 18 5.2 12.2 0.00 0.41 0.36 94 1023.6
20260509201635 44 30 5.2 14.8 0.00 0.41 0.36 94 1023.6
20260509201135 45 30 7.0 14.8 0.00 0.41 0.36 94 1023.6
20260509200636 45 37 6.1 13.0 0.00 0.41 0.36 94 1023.4
20260509200137 44 35 7.0 13.0 0.00 0.41 0.36 94 1023.5
20260509195636 44 0 7.0 13.0 0.00 0.41 0.36 94 1023.3
20260509195136 44 0 6.1 13.0 0.00 0.41 0.36 94 1023.4
20260509194635 44 8 7.8 13.0 0.00 0.41 0.36 94 1023.4
20260509194137 44 31 7.0 13.0 0.00 0.41 0.36 94 1023.4
20260509193636 44 41 7.0 13.0 0.00 0.41 0.36 94 1023.4
20260509192635 44 3 7.0 14.8 0.00 0.41 0.36 94 1023.3
20260509192136 44 37 5.2 13.0 0.00 0.41 0.36 94 1023.4
20260509191135 44 7 7.8 16.5 0.01 0.41 0.36 94 1023.3
20260509190636 44 27 7.0 18.2 0.01 0.41 0.36 94 1023.2
20260509190136 44 4 7.8 18.2 0.01 0.41 0.36 94 1023.2
20260509185636 44 10 8.7 14.8 0.01 0.40 0.36 94 1023.2
20260509185136 44 28 7.0 15.6 0.01 0.40 0.36 94 1023.2
20260509184637 44 32 6.1 15.6 0.01 0.40 0.36 94 1023.3
20260509184137 44 4 8.7 14.8 0.02 0.40 0.36 95 1023.3
20260509183135 44 8 9.6 13.9 0.02 0.40 0.36 95 1023.4
20260509182637 44 39 7.8 15.6 0.02 0.40 0.36 94 1023.4
20260509182135 44 24 7.8 15.6 0.03 0.40 0.36 95 1023.3
20260509181137 44 6 7.8 14.8 0.02 0.40 0.35 95 1023.3
20260509180636 44 0 7.8 16.5 0.03 0.40 0.35 95 1023.1
20260509180138 44 13 9.6 16.5 0.04 0.40 0.35 95 1023.2
20260509175135 44 24 7.8 18.2 0.05 0.36 0.35 95 1023.1
20260509174636 44 14 7.8 18.2 0.06 0.36 0.35 95 1023.0
20260509174137 44 6 11.3 18.2 0.06 0.36 0.35 95 1023.1
20260509173635 44 17 7.0 15.6 0.07 0.36 0.35 96 1023.0
20260509172636 44 1 8.7 15.6 0.08 0.36 0.34 96 1022.9
20260509171636 44 4 7.0 16.5 0.09 0.36 0.33 97 1022.8
20260509171136 44 23 8.7 18.2 0.09 0.36 0.33 97 1022.8
20260509170136 44 31 13.9 20.0 0.09 0.36 0.31 97 1022.8
20260509164636 45 1 8.7 17.4 0.10 0.27 0.29 97 1022.6
20260509164136 45 38 10.4 17.4 0.10 0.27 0.28 97 1022.5
20260509163635 45 20 7.0 20.0 0.10 0.27 0.28 97 1022.5
20260509163138 45 354 10.4 20.0 0.10 0.27 0.26 97 1022.6
20260509162635 45 25 8.7 17.4 0.10 0.27 0.26 97 1022.5
20260509162137 45 11 12.2 17.4 0.10 0.27 0.25 97 1022.6
20260509161636 45 0 7.8 16.5 0.11 0.27 0.24 97 1022.6
20260509161136 45 0 9.6 16.5 0.11 0.27 0.23 97 1022.5
20260509160636 45 4 8.7 17.4 0.11 0.27 0.23 97 1022.5
20260509160136 45 13 12.2 17.4 0.11 0.27 0.22 97 1022.3
20260509155636 45 357 9.6 17.4 0.12 0.14 0.21 97 1022.3
20260509155135 46 0 9.6 15.6 0.11 0.14 0.20 97 1022.2
20260509154636 46 330 9.6 15.6 0.09 0.14 0.19 97 1022.2
20260509154136 46 6 7.8 17.4 0.09 0.14 0.18 97 1022.0
20260509153636 46 18 8.7 17.4 0.08 0.14 0.17 96 1022.1
20260509153136 46 8 11.3 20.0 0.07 0.14 0.17 97 1022.0
20260509152635 46 0 8.7 20.0 0.06 0.14 0.16 96 1022.0
20260509152137 47 48 9.6 20.9 0.06 0.14 0.15 96 1021.9
20260509151636 47 1 9.6 20.9 0.04 0.14 0.13 96 1021.9
20260509151136 47 0 8.7 15.6 0.04 0.14 0.13 96 1021.8
20260509150636 48 355 7.0 15.6 0.03 0.14 0.12 96 1021.8
20260509145635 49 14 7.8 13.0 0.02 0.13 0.09 97 1021.6
20260509145137 49 27 7.0 15.6 0.02 0.13 0.09 97 1021.5
20260509144635 49 21 7.0 15.6 0.02 0.13 0.09 97 1021.5
20260509144137 49 0 7.0 11.3 0.02 0.13 0.09 97 1021.5
20260509143648 49 0 6.1 12.2 0.02 0.13 0.09 96 1021.5
20260509143135 49 10 7.0 12.2 0.02 0.13 0.09 96 1021.4
20260509142635 49 17 7.8 12.2 0.02 0.13 0.09 96 1021.5
20260509141636 49 20 6.1 12.2 0.02 0.13 0.09 96 1021.4
20260509141137 49 0 6.1 12.2 0.02 0.13 0.09 96 1021.3
20260509140636 49 14 7.8 11.3 0.02 0.13 0.08 96 1021.3
20260509140136 49 23 3.5 11.3 0.01 0.13 0.08 96 1021.4
20260509135637 49 17 1.7 6.1 0.01 0.12 0.08 96 1021.4
20260509135136 49 341 3.5 6.1 0.00 0.12 0.07 96 1021.5
20260509134136 49 0 3.5 9.6 0.00 0.12 0.07 95 1021.5
20260509133635 49 348 3.5 9.6 0.00 0.12 0.07 95 1021.6
20260509132636 49 353 2.6 10.4 0.00 0.12 0.07 95 1021.5
20260509132135 49 343 5.2 10.4 0.00 0.12 0.07 95 1021.5
20260509131635 49 355 4.3 9.6 0.00 0.12 0.07 95 1021.4
20260509131136 49 350 5.2 11.3 0.00 0.12 0.07 95 1021.4
20260509130635 49 327 3.5 11.3 0.00 0.12 0.07 95 1021.4
20260509130135 49 336 6.1 10.4 0.00 0.12 0.07 95 1021.4
20260509125636 49 6 2.6 10.4 0.00 0.12 0.07 95 1021.3
20260509124635 49 353 5.2 7.8 0.00 0.12 0.07 95 1021.4
20260509124135 49 341 3.5 9.6 0.00 0.12 0.07 95 1021.4
20260509123636 49 4 4.3 9.6 0.00 0.12 0.07 95 1021.3
20260509123137 50 4 3.5 7.8 0.00 0.12 0.07 95 1021.4
20260509122635 50 7 2.6 6.1 0.00 0.12 0.07 95 1021.4
20260509122135 50 37 3.5 6.1 0.00 0.12 0.07 95 1021.4
20260509121635 50 355 2.6 6.1 0.00 0.12 0.07 95 1021.3
20260509121137 50 0 2.6 9.6 0.00 0.12 0.07 95 1021.3
20260509120636 50 0 3.5 9.6 0.00 0.12 0.07 95 1021.3
20260509120135 50 11 4.3 9.6 0.00 0.12 0.07 95 1021.3
20260509115137 50 10 4.3 11.3 0.00 0.12 0.07 95 1021.2
20260509114636 50 11 5.2 10.4 0.00 0.14 0.07 95 1021.2
20260509113637 50 0 4.3 12.2 0.00 0.16 0.07 96 1021.2
20260509113134 50 0 5.2 12.2 0.00 0.16 0.07 96 1021.2
20260509112637 51 4 7.0 13.0 0.00 0.16 0.07 96 1021.2
20260509112134 51 42 6.1 13.9 0.00 0.16 0.07 96 1021.2
20260509111635 51 14 7.8 13.9 0.00 0.16 0.07 96 1021.0
20260509111135 51 1 6.1 11.3 0.00 0.16 0.07 97 1021.1
20260509110635 51 27 6.1 11.3 0.00 0.16 0.07 97 1021.1
20260509110135 51 17 7.0 10.4 0.00 0.16 0.07 97 1021.2
20260509105635 50 16 4.3 10.4 0.00 0.16 0.07 97 1021.2
20260509105135 50 37 6.1 10.4 0.00 0.16 0.07 97 1021.2
20260509104635 50 28 4.3 7.8 0.00 0.16 0.07 97 1021.4
20260509104134 50 13 3.5 9.6 0.00 0.16 0.07 97 1021.4
20260509103638 50 10 4.3 10.4 0.00 0.16 0.07 97 1021.3
20260509102635 50 28 1.7 9.6 0.00 0.16 0.07 97 1021.4
20260509102135 50 27 4.3 9.6 0.00 0.16 0.07 97 1021.5
20260509101635 50 11 3.5 7.0 0.00 0.16 0.07 97 1021.4
20260509101137 50 354 2.6 9.6 0.00 0.16 0.07 97 1021.5
20260509100636 50 30 4.3 9.6 0.00 0.16 0.07 97 1021.5
20260509095134 50 0 2.6 7.8 0.00 0.16 0.07 97 1021.4
20260509094134 50 0 5.2 9.6 0.00 0.16 0.07 97 1021.4
20260509093634 50 10 3.5 7.8 0.00 0.16 0.07 97 1021.3
20260509092634 50 1 3.5 7.8 0.00 0.16 0.07 97 1021.3
20260509092135 50 4 2.6 7.8 0.00 0.16 0.07 97 1021.2
20260509091635 50 4 4.3 7.8 0.00 0.16 0.07 97 1021.2
20260509091134 50 355 3.5 7.8 0.00 0.16 0.07 97 1021.3
20260509090635 49 0 5.2 7.8 0.00 0.16 0.07 97 1021.3
20260509090135 49 39 3.5 6.1 0.00 0.16 0.07 97 1021.4
20260509085637 49 16 3.5 9.6 0.00 0.16 0.07 97 1021.3
20260509085134 49 20 4.3 9.6 0.01 0.16 0.07 97 1021.3
20260509084635 49 0 4.3 7.8 0.01 0.16 0.07 97 1021.3
20260509083635 49 10 6.1 9.6 0.01 0.16 0.07 97 1021.2
20260509083134 49 38 4.3 9.6 0.01 0.16 0.07 97 1021.3
20260509082637 49 13 4.3 7.8 0.01 0.16 0.07 97 1021.2
20260509082134 49 20 3.5 9.6 0.01 0.16 0.07 97 1021.2
20260509081635 49 10 5.2 9.6 0.01 0.16 0.07 97 1021.1
20260509081136 49 0 2.6 6.1 0.01 0.16 0.07 97 1021.1
20260509080634 49 58 3.5 7.8 0.01 0.16 0.07 97 1021.0
20260509080135 49 54 2.6 7.8 0.01 0.16 0.07 97 1021.1
20260509075634 49 61 4.3 7.0 0.01 0.15 0.07 97 1021.0
20260509075135 49 158 3.5 7.0 0.00 0.15 0.06 97 1021.0
20260509074636 49 31 4.3 7.0 0.00 0.15 0.06 97 1021.1
20260509074134 50 11 2.6 9.6 0.00 0.15 0.06 97 1021.0
20260509072135 50 16 1.7 7.0 0.00 0.15 0.06 97 1020.8
20260509071634 50 52 2.6 6.1 0.00 0.15 0.06 97 1020.8
20260509071134 50 14 2.6 5.2 0.00 0.15 0.06 97 1020.8
20260509070635 50 25 1.7 5.2 0.00 0.15 0.06 97 1020.8
20260509065636 49 35 1.7 6.1 0.00 0.15 0.06 97 1020.5
20260509065135 49 58 1.7 5.2 0.00 0.15 0.06 97 1020.6
20260509064634 49 44 2.6 5.2 0.00 0.15 0.06 97 1020.6
20260509064136 49 39 1.7 5.2 0.00 0.15 0.06 97 1020.6
20260509063636 49 31 2.6 5.2 0.00 0.15 0.06 97 1020.5
20260509063135 49 55 2.6 6.1 0.00 0.15 0.06 97 1020.5
20260509062134 49 42 3.5 6.1 0.01 0.15 0.06 97 1020.6
20260509061634 49 24 1.7 6.1 0.01 0.15 0.06 97 1020.5
20260509061135 49 18 3.5 6.1 0.01 0.15 0.06 97 1020.4
20260509060635 49 38 2.6 5.2 0.01 0.15 0.06 97 1020.3
20260509060134 49 14 1.7 5.2 0.01 0.15 0.06 97 1020.3
20260509055647 49 25 2.6 6.1 0.01 0.14 0.06 97 1020.1
20260509055135 49 28 2.6 7.0 0.01 0.14 0.06 97 1020.1
20260509054635 49 59 1.7 7.0 0.01 0.14 0.06 97 1019.9
20260509054134 49 18 4.3 7.0 0.01 0.14 0.06 97 1019.9
20260509053635 49 49 3.5 6.1 0.01 0.14 0.06 97 1020.0
20260509053134 49 58 2.6 6.1 0.01 0.14 0.06 97 1020.0
20260509052134 49 66 2.6 6.1 0.00 0.14 0.06 97 1020.0
20260509051636 49 49 3.5 6.1 0.00 0.14 0.06 97 1019.9
20260509050635 49 75 1.7 6.1 0.00 0.14 0.06 97 1020.0
20260509050136 49 72 3.5 6.1 0.00 0.14 0.06 97 1019.9
20260509045638 49 63 1.7 7.0 0.00 0.14 0.06 97 1019.8
20260509045134 49 69 2.6 9.6 0.00 0.14 0.06 97 1019.8
20260509044634 49 72 3.5 9.6 0.00 0.14 0.06 97 1019.7
20260509044135 49 35 3.5 7.0 0.00 0.14 0.06 97 1019.8
20260509043636 49 78 3.5 7.8 0.00 0.14 0.06 96 1019.8
20260509043135 49 61 4.3 7.8 0.00 0.14 0.06 96 1019.8
20260509042634 49 80 3.5 7.8 0.00 0.14 0.06 96 1019.9
20260509042135 49 52 2.6 5.2 0.00 0.14 0.06 96 1020.0
20260509041635 49 61 0.9 6.1 0.00 0.14 0.06 96 1020.1
20260509040636 49 69 1.7 5.2 0.00 0.14 0.06 96 1020.1
20260509040134 49 71 1.7 5.2 0.00 0.14 0.06 96 1020.1
20260509035635 49 78 1.7 5.2 0.00 0.14 0.06 96 1020.2
20260509035135 49 96 1.7 5.2 0.00 0.14 0.06 96 1020.1
20260509034635 49 96 1.7 4.3 0.00 0.14 0.06 96 1020.1
20260509034135 48 102 1.7 4.3 0.00 0.14 0.06 96 1020.0
20260509033135 48 90 2.6 5.2 0.00 0.14 0.06 96 1020.0
20260509032635 48 78 1.7 4.3 0.00 0.14 0.06 95 1020.1
20260509032136 48 69 1.7 4.3 0.00 0.14 0.06 95 1020.1
20260509031134 48 107 1.7 3.5 0.00 0.14 0.06 95 1020.2
20260509030634 48 107 0.9 4.3 0.00 0.14 0.06 95 1020.2
20260509025634 48 133 0.9 4.3 0.01 0.13 0.06 95 1020.1
20260509025135 48 133 1.7 4.3 0.01 0.13 0.06 95 1020.0
20260509024634 48 127 1.7 3.5 0.02 0.13 0.06 94 1020.0
20260509023638 48 127 1.7 3.5 0.04 0.13 0.06 95 1020.0
20260509023134 48 34 1.7 3.5 0.04 0.13 0.06 94 1020.0
20260509022635 48 34 0.0 4.3 0.05 0.13 0.06 94 1020.0
20260509021134 48 179 0.9 3.5 0.05 0.13 0.06 94 1020.1
20260509020635 48 179 0.9 3.5 0.05 0.13 0.06 94 1020.2
20260509020135 48 179 0.0 1.7 0.04 0.13 0.05 94 1020.2
20260509015636 48 179 0.0 1.7 0.04 0.09 0.05 94 1020.3